Time,TemperatureF,DewpointF,PressureIn,WindDirection,WindDirectionDegrees,WindSpeedMPH,WindSpeedGustMPH,Humidity,HourlyPrecipIn,Conditions,Clouds,dailyrainin,SoftwareType,DateUTC
2013-06-27 00:01:00,75.0,71.0,30.09,NE,41,1.0,2.0,86,0.00,,,0.12,,2013-06-27 04:01:00,
2013-06-27 00:11:00,75.0,71.0,30.09,NE,41,1.0,2.0,86,0.00,,,0.12,,2013-06-27 04:11:00,
2013-06-27 00:32:00,75.0,70.0,30.09,East,101,2.0,6.0,85,0.00,,,0.12,,2013-06-27 04:32:00,
2013-06-27 00:42:00,76.0,71.0,30.10,SW,215,1.0,2.0,84,0.00,,,0.12,,2013-06-27 04:42:00,
2013-06-27 01:02:00,75.0,70.0,30.10,SW,236,1.0,3.0,85,0.00,,,0.12,,2013-06-27 05:02:00,
2013-06-27 01:12:00,75.0,70.0,30.10,SSW,197,2.0,4.0,84,0.00,,,0.12,,2013-06-27 05:12:00,
2013-06-27 01:32:00,76.0,71.0,30.10,SW,219,3.0,5.0,84,0.00,,,0.24,,2013-06-27 05:32:00,
2013-06-27 01:53:00,74.0,71.0,30.08,North,7,1.0,1.0,90,0.00,,,0.24,,2013-06-27 05:53:00,
2013-06-27 02:01:00,73.0,71.0,30.08,NNE,21,1.0,2.0,94,0.00,,,0.24,,2013-06-27 06:01:00,
2013-06-27 02:12:00,72.0,70.0,30.08,SW,228,0.0,1.0,95,0.00,,,0.24,,2013-06-27 06:12:00,
2013-06-27 02:22:00,72.0,71.0,30.08,ESE,108,1.0,2.0,96,0.00,,,0.24,,2013-06-27 06:22:00,
2013-06-27 02:34:00,71.0,70.0,30.07,North,356,0.0,0.0,97,0.00,,,0.24,,2013-06-27 06:34:00,
2013-06-27 02:43:00,71.0,70.0,30.07,North,356,0.0,0.0,98,0.00,,,0.24,,2013-06-27 06:43:00,
2013-06-27 02:53:00,71.0,70.0,30.06,North,356,0.0,0.0,98,0.00,,,0.24,,2013-06-27 06:53:00,
2013-06-27 03:02:00,70.0,70.0,30.06,ENE,68,2.0,3.0,99,0.00,,,0.24,,2013-06-27 07:02:00,
2013-06-27 03:22:00,70.0,70.0,30.05,SW,225,2.0,3.0,100,0.00,,,0.24,,2013-06-27 07:22:00,
2013-06-27 03:33:00,71.0,71.0,30.04,SW,217,3.0,6.0,100,0.00,,,0.24,,2013-06-27 07:33:00,
2013-06-27 03:42:00,72.0,71.0,30.03,SE,142,3.0,9.0,98,0.00,,,0.24,,2013-06-27 07:42:00,
2013-06-27 03:52:00,73.0,72.0,30.02,South,191,6.0,11.0,98,0.00,,,0.24,,2013-06-27 07:52:00,
2013-06-27 04:01:00,75.0,73.0,30.02,SE,142,4.0,7.0,95,0.00,,,0.24,,2013-06-27 08:01:00,
2013-06-27 04:34:00,75.0,73.0,30.01,South,184,5.0,7.0,95,0.00,,,0.24,,2013-06-27 08:34:00,
2013-06-27 04:43:00,76.0,74.0,30.02,WSW,257,3.0,6.0,92,0.00,,,0.24,,2013-06-27 08:43:00,
2013-06-27 05:02:00,77.0,74.0,30.03,ESE,120,2.0,5.0,90,0.00,,,0.24,,2013-06-27 09:02:00,
2013-06-27 05:22:00,77.0,74.0,30.03,WSW,245,3.0,5.0,89,0.00,,,0.24,,2013-06-27 09:22:00,
2013-06-27 05:34:00,76.0,72.0,30.04,ENE,70,6.0,15.0,86,0.00,,,0.24,,2013-06-27 09:34:00,
2013-06-27 06:01:00,75.0,71.0,30.05,East,87,3.0,4.0,86,0.00,,,0.25,,2013-06-27 10:01:00,
2013-06-27 07:22:00,72.0,68.0,30.04,South,169,2.0,3.0,86,0.00,,,0.25,,2013-06-27 11:22:00,
2013-06-27 08:34:00,71.0,70.0,30.01,South,170,0.0,1.0,96,0.00,,,0.25,,2013-06-27 12:34:00,
2013-06-27 08:42:00,72.0,71.0,30.02,NNW,346,1.0,2.0,97,0.00,,,0.25,,2013-06-27 12:42:00,
2013-06-27 09:34:00,73.0,71.0,30.01,South,177,1.0,1.0,93,0.00,,,0.25,,2013-06-27 13:34:00,
2013-06-27 11:42:00,77.0,74.0,30.01,ENE,66,0.0,0.0,89,0.00,,,0.25,,2013-06-27 15:42:00,
2013-06-27 12:23:00,81.0,75.0,30.00,SW,232,1.0,2.0,82,0.00,,,0.25,,2013-06-27 16:23:00,
2013-06-27 12:34:00,82.0,75.0,30.00,WSW,240,2.0,3.0,79,0.00,,,0.25,,2013-06-27 16:34:00,
2013-06-27 12:43:00,83.0,75.0,30.00,SW,232,0.0,1.0,77,0.00,,,0.25,,2013-06-27 16:43:00,
2013-06-27 12:53:00,82.0,75.0,30.00,SE,138,0.0,0.0,80,0.00,,,0.25,,2013-06-27 16:53:00,
2013-06-27 13:53:00,87.0,78.0,29.98,North,353,1.0,2.0,75,0.00,,,0.25,,2013-06-27 17:53:00,
2013-06-27 14:22:00,87.0,78.0,29.97,North,354,1.0,1.0,74,0.00,,,0.25,,2013-06-27 18:22:00,
2013-06-27 14:32:00,87.0,78.0,29.97,WNW,297,0.0,1.0,76,0.00,,,0.18,,2013-06-27 18:32:00,
2013-06-27 14:44:00,88.0,79.0,29.96,SSW,212,2.0,2.0,74,0.00,,,0.14,,2013-06-27 18:44:00,
2013-06-27 14:52:00,88.0,77.0,29.96,ENE,75,0.0,0.0,70,0.00,,,0.13,,2013-06-27 18:52:00,
2013-06-27 15:01:00,88.0,77.0,29.96,South,174,4.0,7.0,70,0.00,,,0.13,,2013-06-27 19:01:00,
2013-06-27 15:34:00,87.0,76.0,29.95,SSE,167,4.0,5.0,71,0.00,,,0.13,,2013-06-27 19:34:00,
2013-06-27 15:53:00,86.0,77.0,29.94,SW,226,1.0,3.0,75,0.00,,,0.13,,2013-06-27 19:53:00,
2013-06-27 16:22:00,87.0,77.0,29.92,SSW,207,1.0,2.0,73,0.00,,,0.13,,2013-06-27 20:22:00,
2013-06-27 16:54:00,86.0,77.0,29.92,South,174,3.0,3.0,75,0.00,,,0.13,,2013-06-27 20:54:00,
2013-06-27 17:14:00,85.0,76.0,29.91,South,191,5.0,7.0,75,0.00,,,0.13,,2013-06-27 21:14:00,
2013-06-27 17:46:00,85.0,76.0,29.91,SW,217,2.0,3.0,75,0.00,,,0.13,,2013-06-27 21:46:00,
2013-06-27 17:53:00,85.0,77.0,29.91,SW,233,1.0,1.0,78,0.00,,,0.13,,2013-06-27 21:53:00,
2013-06-27 18:15:00,84.0,80.0,29.91,North,357,2.0,3.0,87,0.00,,,0.13,,2013-06-27 22:15:00,
2013-06-27 18:24:00,80.0,79.0,29.91,SSE,162,0.0,3.0,96,0.00,,,0.13,,2013-06-27 22:24:00,
2013-06-27 18:35:00,80.0,79.0,29.90,East,96,1.0,1.0,97,0.00,,,0.13,,2013-06-27 22:35:00,
2013-06-27 19:05:00,81.0,79.0,29.91,SSE,160,1.0,4.0,95,0.00,,,0.13,,2013-06-27 23:05:00,
2013-06-27 19:15:00,81.0,79.0,29.92,ESE,111,0.0,0.0,93,0.00,,,0.13,,2013-06-27 23:15:00,
2013-06-27 19:45:00,80.0,78.0,29.93,ESE,121,0.0,0.0,95,0.00,,,0.13,,2013-06-27 23:45:00,
2013-06-27 19:55:00,80.0,78.0,29.93,ESE,121,0.0,0.0,95,0.00,,,0.13,,2013-06-27 23:55:00,
2013-06-27 20:07:00,80.0,78.0,29.93,ESE,121,0.0,0.0,95,0.00,,,0.13,,2013-06-28 00:07:00,
2013-06-27 20:14:00,79.0,77.0,29.93,ESE,121,0.0,0.0,95,0.00,,,0.13,,2013-06-28 00:14:00,
2013-06-27 20:35:00,78.0,77.0,29.93,SSW,204,0.0,0.0,97,0.00,,,0.13,,2013-06-28 00:35:00,
2013-06-27 20:45:00,78.0,77.0,29.93,SW,235,1.0,2.0,98,0.00,,,0.13,,2013-06-28 00:45:00,
2013-06-27 21:14:00,77.0,77.0,29.93,WSW,246,0.0,0.0,99,0.00,,,0.13,,2013-06-28 01:14:00,
2013-06-27 21:25:00,77.0,77.0,29.93,ENE,66,0.0,0.0,100,0.00,,,0.13,,2013-06-28 01:25:00,
2013-06-27 21:56:00,75.0,75.0,29.95,SSW,201,0.0,1.0,99,0.00,,,0.13,,2013-06-28 01:56:00,
2013-06-27 22:36:00,74.0,74.0,29.96,South,181,0.0,0.0,100,0.00,,,0.13,,2013-06-28 02:36:00,